Location: *
(42.3442°N, 9.2072°E)
Time: 15:36:09
(UTC+00:00)

Cosmos 1174 - Pass Details

Date: 13 August 2020
Orbit: 363 x 1155 km, 66.1° (Epoch: 23 September)

Event Time Altitude Azimuth Distance (km) Brightness Sun altitude
Rises 03:07:45 0° 162° (SSE) 2,555 7.0 -14.0°
Reaches altitude 10° 03:10:27 10° 138° (SE) 1,813 6.5 -13.6°
Maximum altitude 03:12:50 15° 102° (ESE) 1,625 6.8 -13.2°
Drops below altitude 10° 03:15:31 10° 67° (ENE) 2,091 8.2 -12.8°
Sets 03:18:59 0° 46° (NE) 3,206 9.6 -12.3°
